[[{"header":{"parameterUnit":"m.s-1","parameterCategory":2,"la1":30.2991,"la2":30.254,"lo1":-89.0895,"lo2":-89.0444,"dy":0.0017,"dx":0.0017,"nx":28,"ny":28,"refTime":"2023-10-17T03:00:00:Z","depth":"0","parameterNumber":2,"parameterNumberName":"U-component_of_CURRENTS"},"data":[0,0,0,0,0,0,0,0,0,0,0,0,0,0,0,0,0,0,0,0,0,0,0,0,0,0,0,0,0,0,0,0,0,0,0,0,0,0,0,0,0,0,0,0,0,0,0,0,0,0,0,0,0,0,0,0,0,0,0.293,0.2932,0,0.3093,0.3095,0.3097,0.3166,0.3166,0.3165,0.3165,0.3311,0.3315,0.3319,0,0,0,0,0,0,0,0,0,0,0,0,0,0.2767,0.2769,0.293,0.2932,0.2934,0.3093,0.3095,0.3098,0.3166,0.3166,0.3165,0.3165,0.331,0.3315,0.332,0,0,0,0,0,0,0,0,0,0,0,0,0,0.2876,0.277,0.293,0.2986,0.2993,0.3092,0.3095,0.3098,0.3167,0.3166,0.3165,0.3165,0.3308,0.3314,0.332,0.3374,0,0,0.334,0.3343,0,0,0,0,0,0,0,0,0.287,0.2882,0.2976,0.2982,0.299,0.3107,0.3091,0.3189,0.3167,0.3102,0.3165,0.3164,0.3241,0.3253,0.3287,0.338,0.3387,0.3341,0.3345,0.3347,0.3349,0,0,0,0,0,0,0,0.2862,0.2876,0.2996,0.2978,0.2987,0.3034,0.3048,0.3111,0.3174,0.3108,0.3113,0.3129,0.3245,0.3281,0.3291,0.3389,0.3341,0.3346,0.335,0.3353,0.3528,0.3529,0,0,0,0,0,0,0.2835,0.2869,0.2991,0.3001,0.2925,0.3037,0.3053,0.3072,0.3174,0.3189,0.3129,0.3131,0.327,0.3284,0.3296,0.3362,0.3347,0.3353,0.3357,0.3527,0.3528,0.3529,0,0,0,0,0,0,0.2831,0.2845,0.2984,0.2937,0.2958,0.3039,0.3061,0.3075,0.3114,0.319,0.3205,0.3153,0.327,0.3287,0.3367,0.3368,0.3356,0.3362,0.3526,0.3527,0.3528,0.3495,0,0,0,0,0,0,0.2826,0.2842,0.2856,0.2935,0.2959,0.3048,0.3062,0.3079,0.3124,0.3129,0.3215,0.3228,0.3271,0.3357,0.3374,0.3377,0.3367,0.3525,0.3527,0.3528,0.3495,0.3495,0.3495,0,0,0,0,0,0.2819,0.2859,0.2855,0.2871,0.2972,0.3049,0.3066,0.3123,0.3125,0.3153,0.3213,0.3226,0.3377,0.3365,0.3383,0.3387,0.3524,0.3526,0.3528,0.3495,0.3495,0.3495,0,0,0,0,0,0,0.2828,0.2872,0.2869,0.2927,0.2974,0.306,0.3106,0.3123,0.3193,0.3197,0.3255,0.3274,0.3349,0.3374,0.3358,0.3441,0.3445,0.3451,0.3414,0.3414,0.3414,0.3581,0.3373,0,0,0,0,0,0.2823,0.2849,0.2898,0.2948,0.2969,0.3028,0.3067,0.3093,0.3161,0.3191,0.3249,0.3307,0.3372,0.3396,0.3467,0.3514,0.3635,0.3523,0.3522,0.3522,0.3671,0.3839,0.387,0.3535,0.3535,0.3535,0,0,0.2859,0.2871,0.29,0.2947,0.2995,0.3076,0.3053,0.3113,0.3186,0.3196,0.3313,0.3327,0.3392,0.3455,0.3485,0.3471,0.3655,0.3524,0.3523,0.3677,0.3845,0.3879,0.3909,0.3536,0.3536,0.3535,0,0,0.297,0.2934,0.3016,0.3037,0.3082,0.3106,0.3116,0.3184,0.3215,0.3293,0.3327,0.3375,0.3441,0.3515,0.3551,0.3601,0.3665,0.3551,0.3672,0.3827,0.3859,0.3889,0.3978,0.4017,0.3528,0.3528,0.3528,0,0.3043,0.3103,0.3057,0.3133,0.3175,0.3123,0.3234,0.3258,0.3342,0.3399,0.3329,0.3499,0.3506,0.3656,0.3655,0.3613,0.3693,0.3651,0.3834,0.3867,0.3898,0.3984,0.4028,0.3526,0.3527,0.3527,0.3527,0,0.3215,0.3253,0.3299,0.3365,0.3394,0.3459,0.3467,0.3501,0.3483,0.3522,0.3634,0.3644,0.3764,0.37,0.3699,0.3893,0.3869,0.3824,0.3842,0.3931,0.4012,0.4058,0.3524,0.3525,0.3525,0.3526,0,0,0.3451,0.344,0.3463,0.348,0.3507,0.3542,0.3641,0.3735,0.3808,0.3818,0.3961,0.4008,0.3995,0.4047,0.4001,0.4106,0.4295,0.406,0.4068,0.4168,0.4616,0.4575,0.462,0.4267,0.4278,0.4286,0.4544,0,0.3636,0.3758,0.373,0.3846,0.3891,0.3852,0.3942,0.3989,0.3996,0.4093,0.4106,0.4197,0.4119,0.4128,0.4245,0.4282,0.4436,0.4231,0.4511,0.4521,0.4491,0.4682,0.4572,0.4798,0.459,0.4598,0.4603,0,0.3828,0.3862,0.3997,0.4005,0.4038,0.4103,0.4185,0.4257,0.4356,0.4368,0.4474,0.4466,0.462,0.451,0.4765,0.4626,0.4708,0.4728,0.4736,0.4799,0.4575,0.4699,0.489,0.4668,0.4675,0.4669,0.4664,0,0.392,0.4037,0.4117,0.4128,0.4164,0.4235,0.4276,0.4358,0.4394,0.4555,0.4576,0.4769,0.4788,0.4984,0.4995,0.4913,0.526,0.5124,0.5204,0.5194,0.5231,0.521,0.5294,0.5466,0.5465,0.5464,0.5464,0,0.4054,0.411,0.4151,0.4173,0.4265,0.4295,0.4394,0.4462,0.4561,0.4614,0.4715,0.4778,0.4916,0.5053,0.5143,0.5314,0.5393,0.5369,0.533,0.5194,0.5169,0.508,0.4945,0.5474,0.5472,0.547,0.5468,0,0.4067,0.4114,0.4166,0.4248,0.4272,0.4318,0.4375,0.4431,0.4545,0.4625,0.4675,0.481,0.5006,0.5146,0.5402,0.5439,0.549,0.5695,0.5491,0.5429,0.5272,0.5138,0.5213,0.5056,0.5865,0.5867,0.5868,0,0.4061,0.4095,0.4164,0.4174,0.4197,0.4262,0.4288,0.4399,0.4439,0.4616,0.4647,0.4865,0.4983,0.5332,0.5533,0.5796,0.5559,0.5797,0.568,0.5384,0.5206,0.4952,0.4792,0.5652,0.5652,0.5651,0.5651,0,0.4026,0.4051,0.408,0.4113,0.4138,0.415,0.421,0.4231,0.4366,0.4448,0.4571,0.4704,0.5069,0.5272,0.5616,0.5756,0.5495,0.5796,0.5587,0.5214,0.4863,0.4644,0.528,0.5648,0.5648,0.5648,0.5648,0.5649,0.3972,0.3976,0.4019,0.4033,0.4044,0.4036,0.402,0.4089,0.4145,0.4259,0.4455,0.4643,0.4992,0.5475,0.5551,0.5592,0.5521,0.5485,0.5394,0.5198,0.4942,0.5562,0.5804,0.5805,0.5806,0.5807,0.5808,0,0.3902,0.3924,0.3935,0.3936,0.3898,0.3945,0.395,0.3923,0.3943,0.4135,0.4271,0.4653,0.4875,0.5113,0.5331,0.5205,0.4988,0.504,0.4657,0.4553,0.5231,0.5112,0.5097,0.5097,0.5097,0.5097,0.5097,0.5098,0.3875,0.3866,0.3877,0.3799,0.3785,0.3698,0.3677,0.3661,0.3756,0.3891,0.409,0.4338,0.4633,0.4872,0.4795,0.4722,0.4307,0.4213,0.408,0.4521,0.4552,0.4581,0.4438,0.4281,0.428,0.3282,0.3274,0.3268]},{"header":{"parameterUnit":"m.s-1","parameterCategory":2,"la1":30.2991,"la2":30.254,"lo1":-89.0895,"lo2":-89.0444,"dy":0.0017,"dx":0.0017,"nx":28,"ny":28,"refTime":"2023-10-17T03:00:00:Z","depth":"0","parameterNumber":3,"parameterNumberName":"V-component_of_CURRENTS"},"data":[0,0,0,0,0,0,0,0,0,0,0,0,0,0,0,0,0,0,0,0,0,0,0,0,0,0,0,0,0,0,0,0,0,0,0,0,0,0,0,0,0,0,0,0,0,0,0,0,0,0,0,0,0,0,0,0,0,0,-0.047,-0.0471,0,-0.0539,-0.054,-0.0541,-0.0594,-0.0594,-0.0594,-0.0595,-0.0686,-0.0688,-0.069,0,0,0,0,0,0,0,0,0,0,0,0,0,-0.0417,-0.0417,-0.047,-0.0471,-0.0472,-0.0539,-0.054,-0.0541,-0.0593,-0.0594,-0.0594,-0.0595,-0.0685,-0.0687,-0.069,0,0,0,0,0,0,0,0,0,0,0,0,0,-0.0459,-0.0417,-0.047,-0.0505,-0.0509,-0.0539,-0.054,-0.0541,-0.0593,-0.0594,-0.0595,-0.0595,-0.0684,-0.0687,-0.069,-0.0697,0,0,-0.07,-0.0701,0,0,0,0,0,0,0,0,-0.0456,-0.0461,-0.0499,-0.0503,-0.0507,-0.0558,-0.0554,-0.0594,-0.0593,-0.0562,-0.0595,-0.0595,-0.0644,-0.065,-0.0663,-0.0701,-0.0705,-0.07,-0.0702,-0.0703,-0.0704,0,0,0,0,0,0,0,-0.0453,-0.0458,-0.0498,-0.05,-0.0505,-0.0529,-0.0535,-0.0562,-0.06,-0.0565,-0.0569,-0.0575,-0.0646,-0.066,-0.0665,-0.0706,-0.07,-0.0703,-0.0704,-0.0706,-0.0768,-0.0768,0,0,0,0,0,0,-0.0441,-0.0455,-0.0496,-0.05,-0.0482,-0.0529,-0.0536,-0.0542,-0.0599,-0.0608,-0.0574,-0.0577,-0.0654,-0.0662,-0.0669,-0.0646,-0.0703,-0.0706,-0.0708,-0.0769,-0.0768,-0.0768,0,0,0,0,0,0,-0.0439,-0.0444,-0.0493,-0.0479,-0.0487,-0.0529,-0.0535,-0.0543,-0.0554,-0.0606,-0.0616,-0.0577,-0.0655,-0.0665,-0.0693,-0.0651,-0.0707,-0.071,-0.0769,-0.0769,-0.0768,-0.0621,0,0,0,0,0,0,-0.0437,-0.0443,-0.0437,-0.0478,-0.0487,-0.0495,-0.0534,-0.0543,-0.0556,-0.0561,-0.0611,-0.0621,-0.0656,-0.0688,-0.0696,-0.0656,-0.0712,-0.0769,-0.0769,-0.0768,-0.0626,-0.0616,-0.0607,0,0,0,0,0,-0.0435,-0.0418,-0.0436,-0.0441,-0.0479,-0.0494,-0.05,-0.0534,-0.0555,-0.0549,-0.0594,-0.0619,-0.0692,-0.069,-0.07,-0.0659,-0.0769,-0.0769,-0.0768,-0.063,-0.0618,-0.0607,0,0,0,0,0,0,-0.0383,-0.0423,-0.0443,-0.0437,-0.0459,-0.0502,-0.0502,-0.0526,-0.0556,-0.0563,-0.0617,-0.0629,-0.064,-0.0681,-0.0678,-0.0683,-0.0734,-0.0736,-0.0626,-0.0615,-0.0606,-0.0511,-0.0715,0,0,0,0,0,-0.037,-0.0372,-0.0412,-0.0404,-0.0417,-0.0459,-0.0469,-0.049,-0.0524,-0.0538,-0.0576,-0.0619,-0.0646,-0.0655,-0.0693,-0.069,-0.0662,-0.0676,-0.0666,-0.0657,-0.059,-0.0491,-0.0463,-0.0767,-0.0767,-0.0767,0,0,-0.0345,-0.0369,-0.0368,-0.0394,-0.0419,-0.0402,-0.0467,-0.0474,-0.045,-0.0543,-0.0531,-0.059,-0.0644,-0.0643,-0.065,-0.0667,-0.0573,-0.0656,-0.0648,-0.0584,-0.0487,-0.0456,-0.0429,-0.0767,-0.0767,-0.0767,0,0,-0.0277,-0.0321,-0.029,-0.0307,-0.0334,-0.0361,-0.0358,-0.0398,-0.041,-0.0419,-0.0474,-0.0492,-0.0555,-0.0556,-0.0572,-0.0531,-0.0532,-0.0571,-0.0426,-0.0332,-0.0303,-0.0278,-0.0256,-0.0229,-0.0554,-0.0554,-0.0554,0,-0.0228,-0.0207,-0.0281,-0.0253,-0.0244,-0.0333,-0.0279,-0.0308,-0.0347,-0.0323,-0.0399,-0.0423,-0.0494,-0.043,-0.0434,-0.0497,-0.0467,-0.046,-0.0309,-0.0283,-0.0259,-0.0242,-0.0214,-0.0547,-0.0548,-0.0549,-0.0549,0,-0.0136,-0.0118,-0.0105,-0.0098,-0.0103,-0.008,-0.0126,-0.0125,-0.0169,-0.018,-0.0152,-0.0241,-0.0231,-0.0283,-0.0353,-0.0223,-0.0269,-0.031,-0.0316,-0.0217,-0.021,-0.0183,-0.0537,-0.0539,-0.0541,-0.0543,0,0,0.0009,-0.0025,-0.0009,0.0009,-0.0014,-0.0009,0.0031,0.0065,0.012,0.0061,0.0162,0.0079,0.0047,0.0028,-0.0052,0.0007,0.0138,-0.007,-0.0068,-0.0008,0.0321,0.0213,0.0229,0.0142,0.0148,0.0154,0.0241,0,0.0129,0.0194,0.0164,0.0244,0.0267,0.0219,0.0267,0.0277,0.0262,0.0321,0.0274,0.0299,0.016,0.0162,0.0213,0.0152,0.0224,0.0116,0.0184,0.0185,0.0114,0.0264,0.0275,0.035,0.0266,0.0271,0.0274,0,0.0252,0.0276,0.0363,0.0396,0.0412,0.0452,0.0523,0.0556,0.0606,0.0603,0.0651,0.0597,0.0652,0.0513,0.0566,0.0508,0.0457,0.0405,0.0407,0.0297,0.0132,0.0244,0.0401,0.0083,0.0314,0.0311,0.0308,0,0.035,0.0425,0.0492,0.05,0.0524,0.0582,0.061,0.0655,0.0693,0.0797,0.0835,0.0901,0.0896,0.0911,0.0746,0.0697,0.0793,0.0705,0.0575,0.0561,0.0584,0.0563,0.0493,0.0821,0.0821,0.0821,0.0821,0,0.046,0.0516,0.0539,0.0563,0.0663,0.067,0.078,0.0815,0.0902,0.0981,0.0985,0.105,0.1003,0.1001,0.0895,0.0808,0.0919,0.0668,0.0623,0.0619,0.0601,0.033,0.016,0.0824,0.0823,0.0823,0.0822,0,0.0495,0.0523,0.0584,0.0653,0.0683,0.0738,0.0819,0.0897,0.0979,0.1094,0.1134,0.1186,0.1207,0.1119,0.1104,0.0956,0.0752,0.084,0.0789,0.0737,0.0308,0.0147,0.0123,0.0004,0.0767,0.0766,0.0764,0,0.0493,0.0531,0.0609,0.0645,0.0667,0.0752,0.0811,0.0908,0.0989,0.1156,0.1221,0.1291,0.1347,0.1265,0.1093,0.0974,0.0714,0.0816,0.0734,0.0346,0.0136,0.0028,-0.0079,0.0795,0.0794,0.0794,0.0793,0,0.0482,0.0511,0.0551,0.0629,0.0695,0.0783,0.0886,0.097,0.1112,0.1227,0.1384,0.1468,0.1415,0.1346,0.1141,0.0994,0.0596,0.0791,0.0469,0.0246,0.0063,-0.0098,0.0592,0.0787,0.0787,0.0788,0.0788,0.0788,0.0452,0.0472,0.0534,0.0605,0.0691,0.0826,0.0919,0.1061,0.1224,0.1476,0.1519,0.1739,0.1592,0.1358,0.1034,0.0481,0.0521,0.0314,0.0179,0.0124,-0.0055,0.0567,0.0642,0.0642,0.0642,0.0642,0.0642,0,0.0411,0.0451,0.051,0.0617,0.0719,0.0781,0.0973,0.1108,0.1319,0.162,0.1798,0.1996,0.1627,0.1233,0.0566,0.0015,-0.0179,-0.0309,-0.0442,-0.0499,0.0145,0.0072,-0.0067,-0.0067,-0.0067,-0.0067,-0.0066,-0.0066,0.0393,0.0432,0.0474,0.0621,0.0712,0.0881,0.1008,0.1235,0.1494,0.1937,0.2252,0.2499,0.231,0.0824,-0.0319,-0.0623,-0.103,-0.1098,-0.1316,-0.0922,-0.0875,-0.083,-0.094,-0.1289,-0.129,-0.1875,-0.1882,-0.1887]}],[{"header":{"parameterUnit":"m.s-1","parameterCategory":2,"la1":30.2991,"la2":30.254,"lo1":-89.0895,"lo2":-89.0444,"dy":0.0017,"dx":0.0017,"nx":28,"ny":28,"refTime":"2023-10-17T03:00:00:Z","depth":"2","parameterNumber":2,"parameterNumberName":"U-component_of_CURRENTS"},"data":[0,0,0,0,0,0,0,0,0,0,0,0,0,0,0,0,0,0,0,0,0,0,0,0,0,0,0,0,0,0,0,0,0,0,0,0,0,0,0,0,0,0,0,0,0,0,0,0,0,0,0,0,0,0,0,0,0,0,0.2339,0.2339,0,0.2377,0.2378,0.2379,0.2416,0.2416,0.2416,0.2417,0.2424,0.2424,0.2424,0,0,0,0,0,0,0,0,0,0,0,0,0,0.2236,0.2239,0.2339,0.234,0.234,0.2377,0.2378,0.2379,0.2416,0.2416,0.2416,0.2417,0.2424,0.2424,0.2424,0,0,0,0,0,0,0,0,0,0,0,0,0,0.2282,0.2239,0.2339,0.236,0.2362,0.2377,0.2378,0.2379,0.2416,0.2416,0.2416,0.2417,0.2424,0.2424,0.2424,0.2418,0,0,0.2424,0.2424,0,0,0,0,0,0,0,0,0.2279,0.2286,0.2357,0.2359,0.2361,0.2389,0.2344,0.239,0.2416,0.2399,0.2417,0.2417,0.2407,0.2408,0.242,0.2419,0.2419,0.2424,0.2424,0.2424,0.2424,0,0,0,0,0,0,0,0.2276,0.2284,0.2358,0.2357,0.236,0.2346,0.2354,0.2353,0.2403,0.2401,0.2402,0.2401,0.2408,0.242,0.242,0.2419,0.2424,0.2424,0.2424,0.2424,0.2507,0.2509,0,0,0,0,0,0,0.2268,0.2282,0.2356,0.2359,0.2316,0.2348,0.2356,0.2383,0.2404,0.2406,0.2401,0.2403,0.242,0.242,0.2421,0.2489,0.2424,0.2424,0.2424,0.2505,0.2508,0.251,0,0,0,0,0,0,0.2266,0.2276,0.2355,0.2316,0.2325,0.2349,0.2378,0.2383,0.2417,0.2404,0.2407,0.2431,0.242,0.2421,0.2438,0.2487,0.2424,0.2424,0.2503,0.2506,0.2509,0.2578,0,0,0,0,0,0,0.2264,0.2275,0.2289,0.2317,0.2327,0.2381,0.2378,0.2384,0.2412,0.2416,0.243,0.243,0.242,0.2438,0.2438,0.2485,0.2424,0.25,0.2504,0.2508,0.2573,0.2584,0.2592,0,0,0,0,0,0.226,0.2276,0.229,0.2298,0.2347,0.2381,0.2387,0.2405,0.2414,0.2436,0.2442,0.2431,0.2465,0.2439,0.2438,0.2487,0.2498,0.2503,0.2508,0.2569,0.2582,0.2592,0,0,0,0,0,0,0.2243,0.2282,0.2298,0.2327,0.236,0.2387,0.2403,0.2419,0.2443,0.2447,0.2442,0.2443,0.2486,0.2474,0.2445,0.2527,0.2487,0.2492,0.2534,0.2545,0.2555,0.2583,0.2424,0,0,0,0,0,0.2244,0.2263,0.2306,0.2328,0.2353,0.2384,0.2399,0.2417,0.2438,0.2452,0.2464,0.2479,0.2504,0.2512,0.2527,0.2554,0.2591,0.2593,0.2602,0.261,0.2636,0.2746,0.2768,0.2526,0.2526,0.2526,0,0,0.2236,0.2262,0.2271,0.2324,0.2355,0.2395,0.2397,0.2432,0.2465,0.2445,0.2496,0.2512,0.252,0.2563,0.2582,0.2558,0.2695,0.2617,0.2623,0.2645,0.2753,0.2777,0.2798,0.253,0.2529,0.2529,0,0,0.223,0.2271,0.2288,0.2322,0.2368,0.2402,0.242,0.2469,0.2497,0.2534,0.2545,0.2593,0.2609,0.2644,0.2657,0.2729,0.2746,0.2734,0.28,0.2906,0.2927,0.2946,0.3008,0.3032,0.2734,0.2735,0.2735,0,0.2207,0.2265,0.2297,0.233,0.2369,0.2414,0.246,0.249,0.2535,0.2578,0.2558,0.2667,0.2657,0.2751,0.2767,0.2754,0.2802,0.2749,0.292,0.294,0.2959,0.3017,0.3043,0.2738,0.2738,0.2738,0.2737,0,0.224,0.2275,0.2296,0.2364,0.2407,0.2455,0.2512,0.2563,0.2604,0.2645,0.2752,0.2766,0.2851,0.2846,0.2815,0.2952,0.2939,0.2923,0.2891,0.2987,0.3042,0.3068,0.2744,0.2743,0.2742,0.2741,0,0,0.2202,0.2297,0.231,0.2341,0.2439,0.2473,0.2555,0.2655,0.2726,0.2783,0.2908,0.2942,0.2997,0.3018,0.3023,0.3082,0.3222,0.3053,0.3057,0.3114,0.3443,0.3228,0.3234,0.3243,0.3248,0.3253,0.3423,0,0.2222,0.2294,0.2352,0.2421,0.2464,0.2547,0.2622,0.2708,0.2791,0.2915,0.2992,0.3104,0.3052,0.3118,0.318,0.3234,0.3297,0.3176,0.3342,0.3347,0.3144,0.3259,0.3046,0.3162,0.3448,0.3452,0.3455,0,0.2233,0.2289,0.2373,0.246,0.2496,0.2554,0.2715,0.279,0.2964,0.3039,0.3192,0.3265,0.3418,0.3343,0.3517,0.345,0.3459,0.3466,0.3474,0.327,0.3179,0.3117,0.3198,0.3498,0.3495,0.3492,0.3489,0,0.2191,0.2287,0.2365,0.2399,0.2521,0.2589,0.2684,0.284,0.2954,0.3167,0.3291,0.3463,0.3603,0.3669,0.3683,0.364,0.3832,0.3785,0.3598,0.3582,0.3431,0.339,0.3901,0.3901,0.39,0.39,0.3899,0,0.218,0.222,0.2352,0.2387,0.2493,0.2586,0.2737,0.2846,0.3071,0.3227,0.3384,0.3533,0.3695,0.3809,0.3784,0.3771,0.3938,0.3641,0.3629,0.344,0.3401,0.371,0.3686,0.3906,0.3905,0.3904,0.3903,0,0.2107,0.219,0.2267,0.2421,0.2466,0.2556,0.2781,0.2892,0.3104,0.3332,0.3433,0.368,0.3819,0.3898,0.4013,0.3899,0.3895,0.3828,0.3562,0.3511,0.3554,0.3531,0.3695,0.3689,0.3684,0.368,0.3677,0,0.2092,0.2122,0.2285,0.2352,0.2428,0.2576,0.2677,0.2896,0.3024,0.3376,0.3474,0.3723,0.3797,0.3883,0.381,0.3771,0.3824,0.3465,0.3315,0.357,0.3543,0.3528,0.3512,0.3163,0.3156,0.315,0.3145,0,0.2059,0.2119,0.2196,0.2335,0.2441,0.2566,0.2726,0.2827,0.3089,0.3226,0.34,0.3499,0.3654,0.3521,0.3482,0.3406,0.3455,0.333,0.3767,0.3191,0.3066,0.3038,0.3043,0.3091,0.3097,0.3101,0.3103,0.3106,0.205,0.2093,0.2198,0.2314,0.2423,0.2522,0.2572,0.2695,0.2815,0.2956,0.314,0.3148,0.326,0.3059,0.2976,0.2929,0.3123,0.2956,0.2978,0.3006,0.2857,0.2724,0.2657,0.266,0.2662,0.2665,0.2667,0,0.2023,0.2075,0.2174,0.2279,0.2333,0.2443,0.2563,0.254,0.2529,0.2651,0.2679,0.2476,0.2437,0.2573,0.2433,0.2378,0.2403,0.2271,0.2319,0.2374,0.2423,0.2245,0.1884,0.1881,0.1878,0.1876,0,0,0.2019,0.206,0.2091,0.2143,0.2222,0.2236,0.2269,0.2199,0.2222,0.2078,0.2044,0.2213,0.2429,0.2076,0.2076,0.1969,0.2144,0.1892,0.253,0.2641,0.2685,0.2838,0.2627,0,0,0,0,0]},{"header":{"parameterUnit":"m.s-1","parameterCategory":2,"la1":30.2991,"la2":30.254,"lo1":-89.0895,"lo2":-89.0444,"dy":0.0017,"dx":0.0017,"nx":28,"ny":28,"refTime":"2023-10-17T03:00:00:Z","depth":"2","parameterNumber":3,"parameterNumberName":"V-component_of_CURRENTS"},"data":[0,0,0,0,0,0,0,0,0,0,0,0,0,0,0,0,0,0,0,0,0,0,0,0,0,0,0,0,0,0,0,0,0,0,0,0,0,0,0,0,0,0,0,0,0,0,0,0,0,0,0,0,0,0,0,0,0,0,-0.0132,-0.0132,0,-0.0156,-0.0156,-0.0157,-0.0204,-0.0204,-0.0205,-0.0206,-0.0279,-0.028,-0.0282,0,0,0,0,0,0,0,0,0,0,0,0,0,-0.0111,-0.0112,-0.0132,-0.0132,-0.0132,-0.0156,-0.0156,-0.0157,-0.0203,-0.0204,-0.0205,-0.0206,-0.0279,-0.028,-0.0282,0,0,0,0,0,0,0,0,0,0,0,0,0,-0.0128,-0.0112,-0.0132,-0.0157,-0.0159,-0.0156,-0.0156,-0.0157,-0.0203,-0.0204,-0.0205,-0.0206,-0.0278,-0.028,-0.0282,-0.0272,0,0,-0.0288,-0.0289,0,0,0,0,0,0,0,0,-0.0127,-0.0129,-0.0153,-0.0155,-0.0158,-0.0176,-0.0176,-0.0197,-0.0203,-0.0189,-0.0206,-0.0207,-0.0247,-0.0252,-0.0256,-0.0276,-0.0279,-0.0288,-0.0289,-0.029,-0.0291,0,0,0,0,0,0,0,-0.0126,-0.0129,-0.0144,-0.0153,-0.0156,-0.0161,-0.0165,-0.018,-0.0214,-0.019,-0.0193,-0.0192,-0.0249,-0.0254,-0.0258,-0.028,-0.0288,-0.029,-0.0291,-0.0292,-0.0328,-0.0328,0,0,0,0,0,0,-0.0118,-0.0127,-0.0143,-0.0144,-0.0142,-0.016,-0.0165,-0.0171,-0.0213,-0.0219,-0.0191,-0.0194,-0.025,-0.0256,-0.0261,-0.0267,-0.029,-0.0292,-0.0293,-0.0328,-0.0328,-0.0328,0,0,0,0,0,0,-0.0118,-0.012,-0.0142,-0.0134,-0.0137,-0.0159,-0.0166,-0.0171,-0.0183,-0.0213,-0.0221,-0.0198,-0.0251,-0.0258,-0.0273,-0.027,-0.0293,-0.0295,-0.0328,-0.0328,-0.0328,-0.027,0,0,0,0,0,0,-0.0118,-0.012,-0.0119,-0.0134,-0.0137,-0.0135,-0.0164,-0.017,-0.0179,-0.0183,-0.0221,-0.0229,-0.0253,-0.027,-0.0275,-0.0273,-0.0296,-0.0328,-0.0328,-0.0328,-0.0272,-0.0268,-0.0264,0,0,0,0,0,-0.0117,-0.0103,-0.0119,-0.012,-0.0136,-0.0133,-0.0136,-0.0157,-0.0178,-0.0174,-0.0202,-0.0228,-0.0272,-0.027,-0.0277,-0.0276,-0.0329,-0.0328,-0.0328,-0.0274,-0.0269,-0.0264,0,0,0,0,0,0,-0.0091,-0.0107,-0.0124,-0.0117,-0.0125,-0.0141,-0.0136,-0.0154,-0.0173,-0.0179,-0.0219,-0.0227,-0.0242,-0.0264,-0.0262,-0.0286,-0.0307,-0.0308,-0.0264,-0.026,-0.0256,-0.0261,-0.0298,0,0,0,0,0,-0.0085,-0.008,-0.0099,-0.0091,-0.0097,-0.0119,-0.0121,-0.0133,-0.0151,-0.0161,-0.019,-0.022,-0.0242,-0.0255,-0.0276,-0.0282,-0.0322,-0.0289,-0.0285,-0.0281,-0.029,-0.0348,-0.0351,-0.0326,-0.0326,-0.0326,0,0,-0.0073,-0.0078,-0.0078,-0.0085,-0.0096,-0.0092,-0.0124,-0.0119,-0.0116,-0.0164,-0.0173,-0.0205,-0.0241,-0.0251,-0.026,-0.027,-0.0305,-0.028,-0.0277,-0.0289,-0.0348,-0.0351,-0.0353,-0.0326,-0.0326,-0.0326,0,0,-0.004,-0.0053,-0.0043,-0.0047,-0.0053,-0.0064,-0.0063,-0.0082,-0.0094,-0.0098,-0.0139,-0.0171,-0.0195,-0.0229,-0.0246,-0.0233,-0.0281,-0.0238,-0.0222,-0.0277,-0.028,-0.0283,-0.0318,-0.0325,-0.0236,-0.0236,-0.0236,0,-0.003,-0.0021,-0.0037,-0.0027,-0.0024,-0.0051,-0.004,-0.0047,-0.0067,-0.0079,-0.0092,-0.0161,-0.0188,-0.0222,-0.0216,-0.0226,-0.0259,-0.0234,-0.0272,-0.0276,-0.028,-0.0316,-0.0325,-0.0233,-0.0233,-0.0234,-0.0234,0,-0.0,0.0011,0.0021,0.0018,0.0024,0.0034,0.002,0.0016,-0.0003,-0.0023,-0.0061,-0.0108,-0.0156,-0.0166,-0.0184,-0.0227,-0.024,-0.0259,-0.0283,-0.0279,-0.0317,-0.0327,-0.0229,-0.023,-0.0231,-0.0232,0,0,-0.0003,0.0032,0.0031,0.0053,0.0047,0.0064,0.0066,0.0057,0.0056,0.0015,-0.0002,-0.0058,-0.0105,-0.0131,-0.0172,-0.0219,-0.0264,-0.0245,-0.0249,-0.0278,-0.0375,-0.0371,-0.0381,-0.029,-0.0292,-0.0293,-0.0384,0,0.0014,0.0064,0.0063,0.0108,0.0134,0.0115,0.0123,0.0116,0.0097,0.0078,0.0003,-0.0027,-0.0084,-0.0107,-0.0167,-0.0225,-0.029,-0.0237,-0.0378,-0.0382,-0.0377,-0.0392,-0.0333,-0.0408,-0.0393,-0.0395,-0.0396,0,0.0028,0.0067,0.0118,0.0171,0.0174,0.0189,0.0199,0.0197,0.0157,0.0145,0.0078,0.0024,-0.005,-0.0099,-0.024,-0.0201,-0.0295,-0.0355,-0.036,-0.0388,-0.0396,-0.0415,-0.0427,-0.0413,-0.0411,-0.041,-0.0409,0,0.0055,0.0104,0.0156,0.017,0.0213,0.0224,0.0224,0.0206,0.023,0.017,0.0198,0.0065,0.0047,-0.011,-0.0217,-0.024,-0.0358,-0.0407,-0.0507,-0.0506,-0.0502,-0.0498,-0.0546,-0.0546,-0.0545,-0.0545,-0.0545,0,0.0083,0.0127,0.0176,0.0206,0.0264,0.026,0.03,0.0284,0.0284,0.0352,0.0224,0.0266,0.0046,-0.0032,-0.0195,-0.035,-0.035,-0.0514,-0.0538,-0.0477,-0.047,-0.0514,-0.0509,-0.0549,-0.0548,-0.0547,-0.0547,0,0.0122,0.0149,0.0212,0.0261,0.0286,0.0314,0.0377,0.0413,0.0401,0.049,0.0485,0.0423,0.0319,0.0107,-0.0107,-0.0276,-0.0455,-0.0521,-0.0421,-0.0433,-0.0586,-0.0577,-0.0682,-0.0682,-0.0683,-0.0684,-0.0684,0,0.0148,0.0187,0.0258,0.0308,0.0334,0.039,0.0447,0.0462,0.0541,0.0626,0.0702,0.0615,0.0609,0.0282,-0.0043,-0.036,-0.0416,-0.053,-0.0591,-0.0591,-0.0604,-0.0594,-0.0584,-0.0557,-0.0556,-0.0556,-0.0555,0,0.0202,0.0216,0.0279,0.0382,0.0454,0.0557,0.0653,0.075,0.082,0.0918,0.1054,0.1038,0.0737,0.0436,-0.0014,-0.0226,-0.0485,-0.0532,-0.0558,-0.0524,-0.0479,-0.0489,-0.0483,-0.0551,-0.0551,-0.0551,-0.0552,-0.0552,0.0233,0.0289,0.0374,0.0482,0.0584,0.0752,0.0878,0.1011,0.1181,0.1343,0.1296,0.1266,0.0892,0.0312,-0.0026,-0.0413,-0.0447,-0.0606,-0.0606,-0.0606,-0.0569,-0.0527,-0.0599,-0.06,-0.06,-0.0601,-0.0601,0,0.0304,0.0384,0.048,0.064,0.0798,0.083,0.106,0.121,0.1464,0.1496,0.1559,0.12,0.0842,0.0428,-0.0131,-0.0482,-0.0505,-0.0586,-0.0542,-0.0544,-0.0547,-0.0505,-0.052,-0.0521,-0.0521,-0.0522,0,0,0.0347,0.0475,0.0546,0.083,0.0954,0.1207,0.1365,0.1565,0.1657,0.1691,0.1606,0.1421,0.0938,0.0539,0.0088,-0.0202,-0.029,-0.0258,-0.029,-0.0185,-0.0182,-0.0529,-0.0463,0,0,0,0,0]}],[{"header":{"parameterUnit":"m.s-1","parameterCategory":2,"la1":30.2991,"la2":30.254,"lo1":-89.0895,"lo2":-89.0444,"dy":0.0017,"dx":0.0017,"nx":28,"ny":28,"refTime":"2023-10-17T03:00:00:Z","depth":"4","parameterNumber":2,"parameterNumberName":"U-component_of_CURRENTS"},"data":[0,0,0,0,0,0,0,0,0,0,0,0,0,0,0,0,0,0,0,0,0,0,0,0,0,0,0,0,0,0,0,0,0,0,0,0,0,0,0,0,0,0,0,0,0,0,0,0,0,0,0,0,0,0,0,0,0,0,0.1306,0.1306,0,0.1324,0.1324,0.1324,0.1355,0.1356,0.1357,0.1357,0.1408,0.1408,0.1409,0,0,0,0,0,0,0,0,0,0,0,0,0,0.1232,0.1233,0.1306,0.1306,0.1307,0.1324,0.1324,0.1325,0.1355,0.1356,0.1357,0.1358,0.1407,0.1408,0.1409,0,0,0,0,0,0,0,0,0,0,0,0,0,0.1257,0.1234,0.1306,0.1325,0.1327,0.1324,0.1324,0.1325,0.1355,0.1356,0.1357,0.1358,0.1407,0.1408,0.1409,0.1395,0,0,0.1412,0.1413,0,0,0,0,0,0,0,0,0.1256,0.126,0.1322,0.1324,0.1326,0.134,0.1317,0.135,0.1355,0.1343,0.1357,0.1359,0.1388,0.1391,0.1389,0.1397,0.1399,0.1412,0.1413,0.1414,0.1414,0,0,0,0,0,0,0,0.1254,0.1259,0.1312,0.1322,0.1325,0.131,0.1316,0.1323,0.1359,0.1344,0.1347,0.1351,0.1389,0.1388,0.1391,0.14,0.1412,0.1413,0.1414,0.1414,0.1487,0.1488,0,0,0,0,0,0,0.1257,0.1257,0.1311,0.1312,0.1294,0.1311,0.1317,0.1333,0.1358,0.1363,0.135,0.1352,0.1386,0.139,0.1393,0.1469,0.1414,0.1415,0.1415,0.1485,0.1487,0.1488,0,0,0,0,0,0,0.1256,0.1262,0.131,0.1285,0.1291,0.1312,0.1329,0.1333,0.1364,0.1362,0.1368,0.1381,0.1387,0.1391,0.1435,0.1468,0.1415,0.1416,0.1484,0.1486,0.1488,0.1563,0,0,0,0,0,0,0.1254,0.1262,0.128,0.1286,0.1293,0.1334,0.1329,0.1333,0.1363,0.1368,0.139,0.1394,0.1388,0.1434,0.1436,0.1468,0.1417,0.1482,0.1485,0.1487,0.1559,0.1567,0.1574,0,0,0,0,0,0.1251,0.1267,0.1281,0.1288,0.1316,0.1335,0.1337,0.1353,0.1364,0.1384,0.1406,0.1395,0.145,0.1436,0.1438,0.1472,0.1481,0.1484,0.1487,0.1555,0.1565,0.1574,0,0,0,0,0,0,0.1239,0.1272,0.1288,0.1313,0.1336,0.1341,0.1359,0.1371,0.1401,0.1417,0.1414,0.142,0.1473,0.1459,0.1443,0.1499,0.1463,0.1466,0.1514,0.1523,0.1531,0.1526,0.1418,0,0,0,0,0,0.1246,0.1276,0.1299,0.1324,0.1339,0.1356,0.1369,0.1387,0.1408,0.1424,0.1439,0.1457,0.1479,0.1493,0.1509,0.1536,0.1538,0.1558,0.1566,0.1572,0.157,0.1616,0.1628,0.1498,0.1498,0.1498,0,0,0.1244,0.1271,0.1285,0.1324,0.1343,0.1365,0.1367,0.1404,0.1429,0.1424,0.1472,0.1493,0.1496,0.1535,0.1556,0.1532,0.1612,0.1576,0.1582,0.1576,0.1621,0.1633,0.1645,0.15,0.15,0.1499,0,0,0.1245,0.1287,0.1306,0.1332,0.1376,0.1393,0.1412,0.1443,0.1471,0.1513,0.1523,0.1566,0.1588,0.1602,0.1608,0.1665,0.1659,0.1672,0.1702,0.1748,0.1759,0.1769,0.1795,0.1806,0.1668,0.1668,0.1668,0,0.1239,0.1273,0.1313,0.1337,0.1362,0.141,0.1432,0.1463,0.1507,0.1534,0.1542,0.1603,0.1616,0.1658,0.1683,0.1684,0.1703,0.1669,0.1759,0.1769,0.1778,0.1802,0.1813,0.1672,0.1672,0.1671,0.1671,0,0.1245,0.1282,0.1299,0.1351,0.1385,0.1419,0.1468,0.1512,0.1555,0.1585,0.1654,0.1677,0.1714,0.1726,0.1724,0.1792,0.1784,0.1773,0.1737,0.1796,0.1817,0.1828,0.1678,0.1676,0.1675,0.1674,0,0,0.1195,0.1284,0.1289,0.1319,0.14,0.1423,0.1486,0.1546,0.1596,0.1648,0.1699,0.1752,0.1786,0.1795,0.1809,0.1839,0.1928,0.1838,0.1838,0.1866,0.2027,0.19,0.1899,0.1943,0.1945,0.1947,0.2019,0,0.1184,0.1223,0.1283,0.1333,0.1357,0.1436,0.1497,0.1567,0.1629,0.1696,0.174,0.1809,0.1807,0.1849,0.1883,0.1933,0.1959,0.1908,0.1963,0.1964,0.1846,0.1908,0.1954,0.2027,0.203,0.2032,0.2033,0,0.1161,0.1194,0.1236,0.1335,0.1358,0.1412,0.1518,0.1584,0.1693,0.1745,0.1815,0.1864,0.1946,0.1926,0.2029,0.2005,0.2021,0.2035,0.2038,0.1896,0.1856,0.1954,0.2052,0.2051,0.2049,0.2048,0.2047,0,0.1085,0.1163,0.12,0.1228,0.1344,0.1399,0.1482,0.1602,0.1668,0.1794,0.1853,0.1947,0.202,0.2063,0.2111,0.2094,0.2195,0.2173,0.2059,0.205,0.211,0.2098,0.2217,0.2217,0.2217,0.2217,0.2217,0,0.104,0.1067,0.1175,0.1191,0.1269,0.1374,0.1468,0.157,0.1698,0.1772,0.1893,0.1953,0.2065,0.213,0.2143,0.2142,0.2232,0.2071,0.2064,0.2139,0.213,0.2118,0.2105,0.222,0.2219,0.2219,0.2218,0,0.095,0.1017,0.1062,0.1184,0.1237,0.1297,0.1461,0.152,0.1676,0.177,0.1823,0.1997,0.2103,0.2166,0.2247,0.2184,0.219,0.215,0.2231,0.2226,0.2005,0.1996,0.2045,0.2042,0.2038,0.2036,0.2033,0,0.0906,0.0919,0.104,0.1075,0.1141,0.124,0.1318,0.1492,0.1561,0.1768,0.1812,0.197,0.2053,0.2088,0.2161,0.2177,0.2137,0.2122,0.205,0.2001,0.199,0.1986,0.1981,0.2028,0.2027,0.2027,0.2026,0,0.0818,0.0872,0.0907,0.0985,0.1065,0.1131,0.1263,0.1305,0.1495,0.1635,0.1763,0.1828,0.1936,0.2017,0.2044,0.204,0.2131,0.2087,0.2093,0.2026,0.1981,0.1972,0.1971,0.2015,0.2016,0.2017,0.2018,0,0.0754,0.076,0.0822,0.0881,0.0958,0.1011,0.1093,0.1204,0.1309,0.1559,0.1587,0.176,0.1913,0.1945,0.1966,0.1967,0.1932,0.1856,0.1873,0.1886,0.1798,0.1715,0.1668,0,0,0,0,0,0.069,0.0689,0.0721,0.0779,0.084,0.0904,0.105,0.1137,0.1321,0.1372,0.1483,0.1575,0.1659,0.1766,0.1735,0.1868,0.1914,0.182,0.1827,0.1952,0.1965,0.1875,0,0,0,0,0,0,0.0646,0.0667,0.0679,0.0666,0.0692,0.0768,0.0857,0.0989,0.1052,0.1247,0.1326,0.1459,0.1587,0.1651,0.1696,0.1719,0.1687,0.1928,0.1923,0.1945,0.1957,0.1967,0.1879,0,0,0,0,0]},{"header":{"parameterUnit":"m.s-1","parameterCategory":2,"la1":30.2991,"la2":30.254,"lo1":-89.0895,"lo2":-89.0444,"dy":0.0017,"dx":0.0017,"nx":28,"ny":28,"refTime":"2023-10-17T03:00:00:Z","depth":"4","parameterNumber":3,"parameterNumberName":"V-component_of_CURRENTS"},"data":[0,0,0,0,0,0,0,0,0,0,0,0,0,0,0,0,0,0,0,0,0,0,0,0,0,0,0,0,0,0,0,0,0,0,0,0,0,0,0,0,0,0,0,0,0,0,0,0,0,0,0,0,0,0,0,0,0,0,0.003,0.003,0,0.0019,0.0018,0.0018,-0.0008,-0.0009,-0.0009,-0.0009,-0.0069,-0.0071,-0.0072,0,0,0,0,0,0,0,0,0,0,0,0,0,0.0032,0.0032,0.003,0.003,0.003,0.0019,0.0018,0.0018,-0.0008,-0.0009,-0.0009,-0.001,-0.0069,-0.0071,-0.0072,0,0,0,0,0,0,0,0,0,0,0,0,0,0.0025,0.0032,0.003,0.0017,0.0016,0.0019,0.0018,0.0018,-0.0008,-0.0009,-0.0009,-0.001,-0.0069,-0.007,-0.0072,-0.0073,0,0,-0.0078,-0.0079,0,0,0,0,0,0,0,0,0.0025,0.0025,0.0019,0.0018,0.0017,0.0008,-0.0003,-0.0014,-0.0008,-0.0001,-0.0009,-0.001,-0.0046,-0.005,-0.0053,-0.0076,-0.0078,-0.0078,-0.0079,-0.008,-0.0081,0,0,0,0,0,0,0,0.0026,0.0025,0.0023,0.0019,0.0018,0.0013,0.0011,-0.0005,-0.0023,-0.0002,-0.0003,-0.0001,-0.0048,-0.0051,-0.0055,-0.0079,-0.0078,-0.008,-0.0081,-0.0082,-0.0107,-0.0107,0,0,0,0,0,0,0.0032,0.0025,0.0024,0.0023,0.0022,0.0014,0.0011,0.001,-0.0022,-0.0026,-0.0001,-0.0002,-0.0048,-0.0053,-0.0057,-0.0057,-0.008,-0.0082,-0.0083,-0.0107,-0.0107,-0.0106,0,0,0,0,0,0,0.0032,0.0031,0.0024,0.0026,0.0025,0.0014,0.0012,0.001,0.0007,-0.002,-0.0026,-0.0,-0.0048,-0.0055,-0.0069,-0.006,-0.0083,-0.0085,-0.0108,-0.0107,-0.0107,-0.0058,0,0,0,0,0,0,0.0032,0.0031,0.0032,0.0026,0.0025,0.0029,0.0013,0.001,0.001,0.0008,-0.0022,-0.0028,-0.0049,-0.0066,-0.007,-0.0063,-0.0086,-0.0109,-0.0108,-0.0107,-0.0061,-0.0056,-0.0052,0,0,0,0,0,0.0032,0.004,0.0032,0.0032,0.0026,0.0029,0.0028,0.0017,0.0011,0.0012,-0.0007,-0.0027,-0.0064,-0.0067,-0.0073,-0.0065,-0.0109,-0.0108,-0.0107,-0.0062,-0.0057,-0.0052,0,0,0,0,0,0,0.0041,0.0038,0.0029,0.0035,0.0032,0.0026,0.0028,0.0022,0.001,0.0006,-0.0022,-0.0029,-0.0039,-0.0057,-0.006,-0.007,-0.0089,-0.0089,-0.0053,-0.0048,-0.0044,-0.0046,-0.0088,0,0,0,0,0,0.0044,0.0049,0.0042,0.0048,0.0046,0.0037,0.0037,0.0032,0.0022,0.0016,-0.0004,-0.0024,-0.0038,-0.0047,-0.0065,-0.007,-0.0114,-0.0069,-0.0064,-0.0061,-0.0065,-0.0131,-0.0134,-0.0103,-0.0103,-0.0103,0,0,0.0049,0.005,0.005,0.005,0.0045,0.0051,0.0035,0.004,0.0046,0.0011,0.0008,-0.0012,-0.0036,-0.0042,-0.0048,-0.0057,-0.009,-0.0059,-0.0056,-0.0063,-0.013,-0.0133,-0.0136,-0.0102,-0.0102,-0.0103,0,0,0.0067,0.006,0.0069,0.0069,0.0069,0.0066,0.0069,0.0062,0.0057,0.0055,0.0033,0.0017,-0.0003,-0.002,-0.003,-0.0014,-0.0067,-0.0016,0.0004,-0.0059,-0.0062,-0.0066,-0.0118,-0.0126,-0.0013,-0.0012,-0.0012,0,0.0069,0.0086,0.0073,0.0083,0.009,0.0075,0.009,0.0083,0.0074,0.0072,0.0059,0.0025,0.0006,-0.0005,0.0004,-0.0005,-0.005,-0.0011,-0.0055,-0.0059,-0.0064,-0.0116,-0.0127,-0.001,-0.001,-0.0011,-0.0011,0,0.0091,0.0107,0.0114,0.0121,0.0124,0.0137,0.0128,0.0127,0.0119,0.0111,0.0095,0.0064,0.0043,0.0039,0.0027,-0.0003,-0.0027,-0.0043,-0.0069,-0.0064,-0.0119,-0.0131,-0.0006,-0.0007,-0.0008,-0.0009,0,0,0.009,0.0123,0.0126,0.0149,0.0148,0.0161,0.0163,0.0167,0.0175,0.0147,0.0144,0.0117,0.0093,0.0079,0.0056,0.0007,-0.0055,-0.0027,-0.0032,-0.0081,-0.0195,-0.0171,-0.0182,-0.0086,-0.0088,-0.0089,-0.0218,0,0.0112,0.0158,0.0159,0.0202,0.0228,0.0214,0.0227,0.0224,0.0209,0.0199,0.0154,0.0143,0.0111,0.0105,0.0047,-0.0027,-0.0085,-0.0018,-0.019,-0.0195,-0.0178,-0.0195,-0.0095,-0.0227,-0.0229,-0.0231,-0.0233,0,0.0133,0.0169,0.0219,0.0269,0.0276,0.0293,0.031,0.0319,0.0292,0.0274,0.0233,0.0193,0.0132,0.01,-0.0052,-0.0011,-0.01,-0.0167,-0.0174,-0.018,-0.0193,-0.0235,-0.0255,-0.0253,-0.0251,-0.025,-0.0249,0,0.0164,0.0212,0.0265,0.0277,0.0319,0.0337,0.0356,0.0346,0.0366,0.0319,0.0315,0.022,0.0185,0.0048,-0.0081,-0.0077,-0.0259,-0.0272,-0.034,-0.0339,-0.0344,-0.0339,-0.0395,-0.0395,-0.0395,-0.0394,-0.0394,0,0.02,0.0243,0.029,0.032,0.0387,0.039,0.0441,0.0436,0.0432,0.045,0.0363,0.034,0.0167,0.0052,-0.0084,-0.0243,-0.0269,-0.0345,-0.0375,-0.0318,-0.0309,-0.0352,-0.0346,-0.0399,-0.0398,-0.0397,-0.0396,0,0.0239,0.0265,0.0332,0.0386,0.0411,0.0459,0.0519,0.0549,0.053,0.0543,0.0532,0.0422,0.0262,0.0089,-0.0131,-0.0227,-0.0391,-0.0442,-0.0362,-0.0383,-0.0433,-0.0422,-0.0541,-0.0541,-0.0542,-0.0542,-0.0542,0,0.0267,0.0307,0.0386,0.0431,0.0463,0.0533,0.0585,0.0602,0.0629,0.0592,0.0599,0.0461,0.0363,0.0078,-0.0119,-0.0386,-0.0415,-0.0495,-0.0473,-0.0433,-0.0451,-0.0439,-0.0428,-0.0542,-0.0542,-0.0543,-0.0543,0,0.0316,0.0339,0.0393,0.049,0.0556,0.0635,0.0702,0.0726,0.0732,0.0723,0.0655,0.0503,0.0324,0.009,-0.0112,-0.0303,-0.0442,-0.0499,-0.05,-0.048,-0.0437,-0.0451,-0.044,-0.0544,-0.0543,-0.0543,-0.0543,0,0.0345,0.0386,0.0451,0.0536,0.0623,0.0694,0.0732,0.0761,0.0788,0.0744,0.0717,0.0517,0.0405,0.0132,-0.0059,-0.024,-0.0287,-0.0332,-0.0343,-0.0344,-0.0243,-0.0156,-0.0211,0,0,0,0,0,0.0367,0.0408,0.0489,0.0574,0.0662,0.0716,0.079,0.0813,0.0817,0.0788,0.0756,0.0589,0.0305,0.0178,-0.0001,-0.0084,-0.0333,-0.0299,-0.0392,-0.0549,-0.0548,-0.046,0,0,0,0,0,0,0.0377,0.0447,0.0485,0.0588,0.0651,0.0751,0.0797,0.0808,0.0793,0.0768,0.0621,0.0559,0.028,0.0405,-0.0002,-0.0059,-0.0138,-0.043,-0.0433,-0.055,-0.0549,-0.0548,-0.0457,0,0,0,0,0]}]]